RVP5 LPVZ-LPPR

Flight info

Callsign RVP5
Flight time 0h 21m
Altitude 12000
Route VIS W2 PESUL
Aircraft C408/M-SDFGRY/S

Departure

Time 2026-04-15 16:32
Airport Aerodromo Goncalves Lobato (Viseu Airport) (LPVZ)

Arrival

Time 2026-04-15 16:53
Airport Francisco de Sá Carneiro Airport (LPPR)
Time Latitude Longitude Altitude Speed Heading
2026-04-15 16:24 40.72221 -7.88971 2062 ft 0 kts 193°
2026-04-15 16:30 40.72217 -7.88972 2062 ft 5 kts 202°
2026-04-15 16:31 40.72246 -7.88997 2062 ft 12 kts 48°
2026-04-15 16:31 40.72255 -7.88896 2059 ft 10 kts 58°
2026-04-15 16:31 40.72377 -7.88886 2059 ft 34 kts 356°
2026-04-15 16:31 40.72820 -7.88929 2050 ft 95 kts 356°
2026-04-15 16:32 40.73578 -7.89048 2316 ft 119 kts 347°
2026-04-15 16:32 40.74311 -7.89606 2664 ft 134 kts 309°
2026-04-15 16:32 40.74797 -7.90670 3123 ft 137 kts 296°
2026-04-15 16:32 40.75193 -7.91856 3522 ft 145 kts 292°
2026-04-15 16:33 40.75588 -7.93091 3985 ft 145 kts 295°
2026-04-15 16:33 40.76330 -7.93954 4418 ft 145 kts 329°
2026-04-15 16:33 40.77050 -7.94879 4880 ft 145 kts 310°
2026-04-15 16:33 40.77724 -7.95878 5346 ft 146 kts 312°
2026-04-15 16:34 40.78406 -7.96873 5812 ft 147 kts 311°
2026-04-15 16:34 40.79085 -7.97885 6275 ft 147 kts 311°
2026-04-15 16:34 40.79764 -7.98897 6747 ft 147 kts 311°
2026-04-15 16:34 40.80443 -7.99911 7216 ft 147 kts 311°
2026-04-15 16:35 40.81122 -8.00924 7686 ft 147 kts 311°
2026-04-15 16:35 40.81798 -8.01934 8155 ft 147 kts 311°
2026-04-15 16:35 40.82475 -8.02946 8624 ft 147 kts 311°
2026-04-15 16:35 40.83143 -8.03944 9084 ft 147 kts 311°
2026-04-15 16:36 40.83818 -8.04955 9556 ft 147 kts 311°
2026-04-15 16:36 40.84495 -8.05966 10011 ft 149 kts 311°
2026-04-15 16:36 40.85259 -8.07106 9932 ft 180 kts 311°
2026-04-15 16:36 40.86124 -8.08398 9897 ft 193 kts 311°
2026-04-15 16:37 40.87009 -8.09722 10038 ft 191 kts 311°
2026-04-15 16:37 40.87887 -8.11036 10177 ft 191 kts 312°
2026-04-15 16:37 40.88951 -8.12069 10293 ft 190 kts 332°
2026-04-15 16:37 40.90093 -8.12913 10430 ft 191 kts 329°
2026-04-15 16:38 40.91233 -8.13824 10552 ft 191 kts 329°
2026-04-15 16:38 40.92405 -8.14731 10406 ft 204 kts 330°
2026-04-15 16:38 40.93560 -8.15871 10002 ft 213 kts 308°
2026-04-15 16:38 40.94089 -8.17692 9555 ft 216 kts 277°
2026-04-15 16:39 40.94173 -8.19691 9032 ft 219 kts 271°
2026-04-15 16:39 40.94204 -8.21707 8494 ft 219 kts 271°
2026-04-15 16:39 40.94233 -8.23723 7953 ft 219 kts 271°
2026-04-15 16:39 40.94262 -8.25722 7408 ft 217 kts 271°
2026-04-15 16:40 40.94290 -8.27714 6862 ft 216 kts 271°
2026-04-15 16:40 40.94317 -8.29695 6316 ft 214 kts 271°
2026-04-15 16:40 40.94345 -8.31656 5768 ft 213 kts 271°
2026-04-15 16:40 40.94371 -8.33610 5221 ft 212 kts 271°
2026-04-15 16:41 40.94398 -8.35551 4673 ft 210 kts 271°
2026-04-15 16:41 40.94425 -8.37481 4127 ft 209 kts 271°
2026-04-15 16:41 40.94450 -8.39327 4003 ft 196 kts 271°
2026-04-15 16:41 40.94474 -8.41105 3995 ft 191 kts 271°
2026-04-15 16:42 40.94497 -8.42852 3990 ft 189 kts 271°
2026-04-15 16:42 40.94520 -8.44586 3994 ft 188 kts 271°
2026-04-15 16:42 40.94591 -8.46307 3989 ft 187 kts 282°
2026-04-15 16:42 40.95049 -8.47911 3993 ft 187 kts 293°
2026-04-15 16:43 40.95518 -8.49516 3997 ft 187 kts 289°
2026-04-15 16:43 40.95923 -8.51156 3993 ft 187 kts 288°
2026-04-15 16:43 40.96324 -8.52801 3999 ft 188 kts 288°
2026-04-15 16:43 40.96732 -8.54443 3998 ft 188 kts 288°
2026-04-15 16:44 40.97003 -8.55532 3962 ft 190 kts 288°
2026-04-15 16:44 40.97419 -8.57206 3824 ft 193 kts 288°
2026-04-15 16:44 40.97999 -8.59414 3736 ft 189 kts 295°
2026-04-15 16:44 40.98814 -8.60752 3724 ft 187 kts 319°
2026-04-15 16:45 40.99947 -8.61575 3733 ft 187 kts 343°
2026-04-15 16:45 41.00789 -8.61823 3727 ft 186 kts 349°
2026-04-15 16:45 41.02065 -8.62145 3729 ft 187 kts 348°
2026-04-15 16:45 41.03335 -8.62493 3731 ft 187 kts 348°
2026-04-15 16:46 41.04610 -8.62839 3732 ft 187 kts 348°
2026-04-15 16:46 41.05775 -8.63148 3720 ft 151 kts 348°
2026-04-15 16:46 41.06732 -8.63403 3731 ft 133 kts 349°
2026-04-15 16:46 41.07616 -8.63632 3723 ft 128 kts 349°
2026-04-15 16:47 41.08490 -8.63854 3709 ft 126 kts 349°
2026-04-15 16:47 41.09387 -8.64004 3556 ft 139 kts 354°
2026-04-15 16:47 41.10287 -8.64149 3305 ft 126 kts 353°
2026-04-15 16:47 41.11150 -8.64340 2995 ft 118 kts 350°
2026-04-15 16:48 41.11889 -8.64509 2690 ft 103 kts 349°
2026-04-15 16:48 41.12569 -8.64684 2341 ft 98 kts 348°
2026-04-15 16:48 41.13219 -8.64881 2049 ft 94 kts 347°
2026-04-15 16:48 41.13862 -8.65082 1892 ft 94 kts 346°
2026-04-15 16:49 41.14495 -8.65274 1793 ft 90 kts 348°
2026-04-15 16:49 41.15096 -8.65442 1751 ft 89 kts 347°
2026-04-15 16:49 41.15700 -8.65617 1773 ft 89 kts 347°
2026-04-15 16:49 41.16324 -8.65794 1786 ft 94 kts 348°
2026-04-15 16:50 41.16984 -8.65966 1767 ft 97 kts 347°
2026-04-15 16:50 41.17648 -8.66156 1730 ft 99 kts 348°
2026-04-15 16:50 41.18336 -8.66353 1572 ft 102 kts 348°
2026-04-15 16:50 41.19023 -8.66557 1425 ft 101 kts 347°
2026-04-15 16:51 41.19730 -8.66751 1208 ft 105 kts 347°
2026-04-15 16:51 41.20424 -8.66942 1028 ft 100 kts 347°
2026-04-15 16:51 41.21078 -8.67119 828 ft 93 kts 348°
2026-04-15 16:51 41.21704 -8.67295 682 ft 91 kts 349°
2026-04-15 16:52 41.22315 -8.67464 542 ft 91 kts 348°
2026-04-15 16:52 41.22935 -8.67628 412 ft 90 kts 348°
2026-04-15 16:52 41.23541 -8.67789 284 ft 89 kts 348°
2026-04-15 16:52 41.24095 -8.67934 243 ft 68 kts 347°
2026-04-15 16:53 41.24501 -8.68043 241 ft 55 kts 349°
2026-04-15 16:53 41.24777 -8.68133 235 ft 16 kts 311°
2026-04-15 16:53 41.24755 -8.68200 233 ft 10 kts 200°
2026-04-15 16:53 41.24687 -8.68228 233 ft 11 kts 198°
2026-04-15 16:54 41.24624 -8.68256 234 ft 7 kts 198°
2026-04-15 16:54 41.24615 -8.68260 234 ft 0 kts 194°
2026-04-15 16:55 41.24573 -8.68274 237 ft 15 kts 194°
2026-04-15 16:55 41.24426 -8.68273 238 ft 27 kts 163°
2026-04-15 16:56 41.24218 -8.68217 239 ft 33 kts 169°
2026-04-15 16:56 41.23991 -8.68161 243 ft 34 kts 169°
2026-04-15 16:56 41.23779 -8.68097 250 ft 28 kts 185°
2026-04-15 16:56 41.23714 -8.68221 248 ft 19 kts 275°
2026-04-15 16:57 41.23696 -8.68415 238 ft 19 kts 258°
2026-04-15 16:57 41.23683 -8.68508 229 ft 0 kts 259°